Powrót do katalogu

COSMOS 1275 DEB

AktywnyPO
NORAD 13470·DEBRIS·🇷🇺 Russia

Wystrzelony Jun 4, 1981 z Plesetsk Cosmodrome

Loading…

Następne Przeloty (najbliższe 24 godziny)

TLE

ŚwieżeSource: Space-Track

Epoka: Sep 14, 2026, 01:43 UTC

1 13470U 81053FS  26257.07174091  .00000215  00000-0  33783-3 0  9998
2 13470  82.8166 119.4552 0238841  21.8078 131.0785 13.35330087154599

Śledź COSMOS 1275 DEB w czasie rzeczywistym z AllMySat

Download on the App Store